COSMOS 1275 DEB, 17792

Orbit data source: Space-Track

COSMOS 1275 DEB, 17792 is space debris in LEO originally from a launch on Thu, 04 Jun 1981 UTC launched from the Plesetsk Missile And Space Complex (PKMTR). Debris objects in space refer to the collection of defunct objects orbiting the Earth. Examples of debris include non-operational satellites, rocket bodies, and fragments generated from explosions, collisions, or faulty payload assembly.

Loading next visibility...
Identifier
17792, 1981-053LN
Orbit
LEO
Country
Flag of CISCIS
Related business
Manufacturer
Unknown
Mission
Spacecraft
Bus & Motor
Unknown
Mass
Unknown
Launch date (UTC)
1981-06-04 (45 years ago)
Launch vehicle
Unknown
Launch site
Plesetsk Missile And Space Complex (PKMTR)
Object type
Payload
Rocket body
Debris
Shape & HBR
Unknown shape, 0.1 m
Radar Cross Section
Small (<0.1 m²)

Expand to show TLE details & history
Last TLE update: 10 hours ago

TLE from 10 hours ago
0 COSMOS 1275 DEB
1 17792U 81053LN  25340.65234639  .00003527  00000-0  18946-2 0  9992
2 17792  82.9540  42.9691 0013756  85.5349  43.1991 14.12637133 69444
Epoch: 2025-12-06T15:39Z
TLE epoch observation values (Epoch: 2025-12-06T15:39:22.728Z)
Latitude
50.72265°
Longitude
-96.19885°
Altitude
851.254 km
Speed
7.436 km/s
True Right ascension
14h 17m 17s
True Declination
50° 33' 22"
Sunlit
Object was in daylight at epoch
Visualization orbit readout
Latitude
Unknown
Longitude
Unknown
Altitude
Unknown
Speed
Unknown
Apparent Right ascension
Unknown
Apparent Declination
Unknown
Sunlit
N/A
Visualization observer readout
Local Sidereal Time
23:21:50
Azimuth
Unknown
Elevation
Unknown
Doppler factor
Unknown
Orbital elements
Apogee altitude
857.397 km
Perigee altitude
837.518 km
Semi-major axis
7,225.595 km
Eccentricity
0.00138
Inclination
82.954°
RAAN
42.9691°
Arg. of periapsis
85.5349°
True anomaly
43.30714°
Mean anomaly
43.1991°
Eccentric anomaly
43.25311°
Mean motion
3.53373 °/min
Orbital period
101.88 mins
BSTAR
0.0018946
Loading maneuver chart data...
Computing Atmospheric mass density...

Documentation

Showing up to 5 results
|